Home > Weather > Walsrode > Past weeks

Flag for Germany Past Weather in Walsrode, Lower Saxony, Germany — Yesterday and Last 2 Weeks

Now
59 °F

Scattered clouds.


Feels Like: 57 °F
Forecast: 57 / 68 °F
Wind: 9 mph from Northwest

Location: Fassberg

Current Time: Jun 28, 2016 at 9:54:45 AM

Latest Report: Jun 28, 2016 at 9:20 AM


Visibility: N/A

Pressure: 30.07 "Hg

Humidity: 77%

Dew Point: 52 °F

Location of WalsrodeLocation

Past Weather in Walsrode — Graph

°F

Walsrode Temperature Yesterday

Maximum temperature yesterday: 72 °F (at 3:20 PM)
Minimum temperature yesterday: 52 °F (at 4:20 AM)
Average temperature yesterday: 62 °F

High & Low Weather Summary for the Past Weeks

 TemperatureHumidityPressure
High90 °F (Jun 23, 3:20 PM)100% (Jun 14, 2:20 AM)30.24 "Hg (Jun 14, 2:20 AM)
Low41 °F (Jun 20, 5:20 AM)38% (Jun 20, 2:20 PM)29.45 "Hg (Jun 14, 3:20 PM)
Average63 °F79%29.89 "Hg
* Reported Jun 13 8:20 AM — Jun 28 8:20 AM, Walsrode, Weather by CustomWeather, © 2016

Note: Actual official high and low records may vary slightly from our data, if they occured in-between our weather recording intervals... More about our weather records

Advertising

Walsrode Weather History for the Previous 24 Hours

Scroll right to see more
 ConditionsComfort  
Time TempWeatherWind HumidityBarometerVisibility
8:20 AM
Tue, Jun 28
57 °FPartly sunny.6 mph88%30.07 "HgN/A
7:20 AM55 °FBroken clouds.8 mph88%30.07 "Hg6 mi
7:01 AM55 °FPartly sunny.5 mph94%30.07 "Hg6 mi
6:20 AM55 °FBroken clouds.5 mph94%30.07 "Hg5 mi
5:20 AM55 °FPartly cloudy.7 mph94%30.07 "HgN/A
4:20 AM57 °FPartly cloudy.8 mph88%30.04 "HgN/A
3:20 AM57 °FPartly cloudy.9 mph94%30.04 "HgN/A
2:20 AM59 °FPartly cloudy.7 mph94%30.04 "Hg4 mi
1:20 AM59 °FLight rain. Fog.5 mph94%30.04 "Hg3 mi
12:20 AM59 °FRain. Fog.7 mph94%30.04 "Hg3 mi
11:20 PM
Mon, Jun 27
61 °FLight rain. Partly cloudy.6 mph94%30.04 "Hg5 mi
10:20 PM63 °FLight rain. Partly sunny.8 mph83%30.01 "HgN/A
9:20 PM63 °FBroken clouds.5 mph77%30.01 "HgN/A
8:20 PM64 °FLight rain. Broken clouds.10 mph73%30.01 "HgN/A
7:20 PM66 °FPartly sunny.13 mph64%30.01 "HgN/A
6:20 PM70 °FPartly sunny.15 mph53%30.01 "HgN/A
5:20 PM72 °FBroken clouds.14 mph47%29.98 "HgN/A
4:20 PM72 °FBroken clouds.16 mph47%30.01 "HgN/A
3:20 PM72 °FScattered clouds.13 mph47%30.01 "HgN/A
2:20 PM70 °FScattered clouds.14 mph50%30.01 "HgN/A
1:20 PM70 °FPartly sunny.15 mph50%30.01 "HgN/A
12:20 PM66 °FScattered clouds.13 mph56%30.04 "HgN/A
11:20 AM66 °FScattered clouds.12 mph60%30.04 "HgN/A
10:20 AM64 °FScattered clouds.10 mph60%30.04 "HgN/A
9:20 AM63 °FScattered clouds.12 mph73%30.04 "HgN/A
Weather by CustomWeather, © 2016

See weather overviewHow to use our weather pages